User: anonymous
Location: Caltech
(34.1382°N, 118.1253°W)
Time: 02:03:44
(UTC-07:00)
Language:

IRS-1A Rocket - Orbit

View from above orbital plane
View from above orbital plane
View from above satellite
View from above satellite

Ground track
Ground track

The orbit data is extracted from the following two-line orbital elements,

1 18961U 88021B   14211.04862519 -.00000250  00000-0 -13478-3 0  6833
2 18961 099.2795 185.2175 0053812 232.6771 168.4026 14.00726999347990
Epoch (UTC): 30 July 2014 01:10:01
Eccentricity: 0.0053812
inclination: 99.2795°
perigee height: 852 km
apogee height: 930 km
right ascension of ascending node: 185.2175°
argument of perigee: 232.6771°
revolutions per day: 14.00726999
mean anomaly at epoch: 168.4026°
orbit number at epoch: 34799

The dashed part of the orbit path shows where the satellite is in the earth's shadow,  

DLR